Date,TemperatureHighF,TemperatureAvgF,TemperatureLowF,DewpointHighF,DewpointAvgF,DewpointLowF,HumidityHigh,HumidityAvg,HumidityLow,PressureMaxIn,PressureMinIn,WindSpeedMaxMPH,WindSpeedAvgMPH,GustSpeedMaxMPH,PrecipitationSumIn
2013-3-8,45.5,33.7,20.1,18.3,14.8,11.6,69,47,28,30.01,29.93,6,2,6,0.00
2013-3-9,55.0,31.7,14.0,20.6,12.3,4.4,68,49,17,30.03,29.93,4,1,4,0.00
2013-3-10,61.9,46.6,25.0,17.7,13.1,7.0,66,29,13,29.91,29.66,8,2,10,0.00
2013-3-11,57.4,51.4,44.1,37.8,22.3,12.4,65,33,19,29.69,29.42,11,3,11,0.01
2013-3-12,49.3,41.5,35.8,41.7,35.6,28.3,90,80,71,29.49,29.35,17,4,17,0.27
2013-3-13,43.9,35.3,30.6,30.4,25.1,18.7,78,67,42,29.50,29.41,8,4,8,0.01
2013-3-14,29.8,20.2,14.2,21.5,5.6,-4.0,75,54,37,29.61,29.40,8,4,8,0.00
2013-3-15,37.2,23.7,11.5,24.9,9.7,-3.8,79,55,37,29.62,29.21,11,3,11,0.01
2013-3-16,27.3,17.6,4.5,10.1,-1.1,-9.7,64,45,25,29.59,29.47,4,2,4,0.00
2013-3-17,32.5,17.4,2.8,0.6,-6.8,-16.0,56,36,15,29.99,29.57,9,2,9,0.00
2013-3-18,39.7,24.3,1.6,10.2,-3.8,-14.1,54,32,15,30.05,29.60,7,2,9,0.00
2013-3-19,39.7,32.4,26.8,29.4,23.2,13.0,82,69,44,29.57,29.33,6,2,6,0.12
2013-3-20,36.1,27.5,20.3,23.1,15.8,12.1,71,62,46,29.39,29.32,9,3,9,0.04
2013-3-21,36.3,27.2,19.2,15.4,10.2,5.0,63,49,28,29.36,29.30,11,5,11,0.00
2013-3-22,32.9,27.0,22.8,18.0,14.2,10.4,73,59,39,29.44,29.28,8,3,8,0.04
2013-3-23,40.3,32.2,23.7,20.2,15.8,9.7,72,52,32,29.54,29.42,13,4,13,0.01
2013-3-24,41.2,33.3,24.1,20.9,17.9,13.6,67,53,40,29.58,29.47,7,2,7,0.00
2013-3-25,46.9,33.2,20.8,23.1,18.8,12.8,73,57,33,29.46,29.27,8,2,8,0.00
2013-3-26,50.4,37.7,26.4,26.9,18.0,9.3,72,48,19,29.50,29.34,6,2,6,0.00
2013-3-27,46.9,39.8,33.3,26.2,23.7,21.3,65,53,41,29.59,29.46,7,3,7,0.00
2013-3-30,45.5,38.9,35.2,20.0,18.0,17.3,48,43,33,29.87,29.81,4,2,4,0.00
2013-3-31,57.7,45.6,37.9,37.5,29.6,9.4,89,62,16,29.80,29.41,10,4,10,0.20